| time (UTC) | temp F | wind direction | speed knots | gust knots | rain 1hr in | rain 24hr in | rain mn in | humidity % | barometer mb |
| 20260506031527 | 45 | 86 | 0.0 | 0.0 | 0.00 | 0.01 | 0.00 | 75 | 1015.7 |
| 20260506031027 | 45 | 86 | 0.0 | 0.0 | 0.00 | 0.01 | 0.00 | 75 | 1015.7 |
| 20260506030525 | 45 | 86 | 0.0 | 0.0 | 0.00 | 0.01 | 0.00 | 76 | 1015.7 |
| 20260506030026 | 45 | 86 | 0.0 | 0.9 | 0.00 | 0.01 | 0.00 | 76 | 1015.7 |
| 20260506025524 | 45 | 86 | 0.0 | 1.7 | 0.00 | 0.01 | 0.00 | 76 | 1015.7 |
| 20260506025024 | 45 | 86 | 0.0 | 0.9 | 0.00 | 0.01 | 0.00 | 75 | 1015.8 |
| 20260506024524 | 45 | 84 | 0.0 | 1.7 | 0.00 | 0.01 | 0.00 | 75 | 1015.7 |
| 20260506024024 | 45 | 84 | 0.0 | 1.7 | 0.00 | 0.01 | 0.00 | 74 | 1015.6 |
| 20260506023524 | 45 | 88 | 0.0 | 0.0 | 0.00 | 0.01 | 0.00 | 73 | 1015.6 |
| 20260506023023 | 45 | 88 | 0.0 | 0.0 | 0.00 | 0.01 | 0.00 | 73 | 1015.5 |
| 20260506022523 | 45 | 88 | 0.0 | 0.0 | 0.00 | 0.01 | 0.00 | 72 | 1015.5 |
| 20260506022023 | 45 | 88 | 0.0 | 0.0 | 0.00 | 0.01 | 0.00 | 74 | 1015.4 |
| 20260506021522 | 45 | 88 | 0.0 | 0.0 | 0.00 | 0.01 | 0.00 | 74 | 1015.4 |
| 20260506021021 | 45 | 88 | 0.0 | 0.0 | 0.00 | 0.01 | 0.00 | 73 | 1015.4 |
| 20260506020521 | 45 | 88 | 0.0 | 0.0 | 0.00 | 0.01 | 0.00 | 73 | 1015.4 |
| 20260506020024 | 45 | 88 | 0.0 | 0.0 | 0.00 | 0.01 | 0.00 | 75 | 1015.3 |
| 20260506015521 | 45 | 88 | 0.0 | 0.0 | 0.00 | 0.01 | 0.00 | 74 | 1015.4 |
| 20260506015022 | 45 | 88 | 0.0 | 0.0 | 0.00 | 0.01 | 0.00 | 74 | 1015.4 |
| 20260506014522 | 45 | 88 | 0.0 | 0.0 | 0.00 | 0.01 | 0.00 | 74 | 1015.5 |
| 20260506014019 | 46 | 88 | 0.0 | 0.0 | 0.00 | 0.01 | 0.00 | 73 | 1015.5 |
| 20260506013519 | 46 | 88 | 0.0 | 0.0 | 0.00 | 0.01 | 0.00 | 73 | 1015.5 |
| 20260506013026 | 46 | 88 | 0.0 | 0.0 | 0.00 | 0.01 | 0.00 | 73 | 1015.5 |
| 20260506012517 | 46 | 88 | 0.0 | 1.7 | 0.00 | 0.01 | 0.00 | 72 | 1015.6 |
| 20260506012017 | 46 | 88 | 0.0 | 1.7 | 0.00 | 0.01 | 0.00 | 72 | 1015.7 |
| 20260506011517 | 46 | 88 | 0.0 | 2.6 | 0.00 | 0.01 | 0.00 | 72 | 1015.7 |
| 20260506011015 | 46 | 90 | 0.0 | 1.7 | 0.00 | 0.01 | 0.00 | 72 | 1015.7 |
| 20260506010515 | 46 | 84 | 0.0 | 2.6 | 0.00 | 0.01 | 0.00 | 71 | 1015.6 |
| 20260506010023 | 46 | 83 | 0.0 | 2.6 | 0.00 | 0.01 | 0.00 | 72 | 1015.7 |
| 20260506005514 | 46 | 81 | 0.9 | 2.6 | 0.00 | 0.01 | 0.00 | 71 | 1015.7 |
| 20260506005017 | 46 | 75 | 0.9 | 2.6 | 0.00 | 0.01 | 0.00 | 71 | 1015.7 |
| 20260506004518 | 46 | 78 | 0.9 | 2.6 | 0.00 | 0.01 | 0.00 | 72 | 1015.7 |
| 20260506004013 | 46 | 75 | 0.0 | 1.7 | 0.00 | 0.01 | 0.00 | 73 | 1015.8 |
| 20260506003513 | 46 | 78 | 0.0 | 1.7 | 0.00 | 0.01 | 0.00 | 74 | 1015.8 |
| 20260506003013 | 46 | 79 | 0.0 | 1.7 | 0.00 | 0.01 | 0.00 | 73 | 1015.8 |
| 20260506002512 | 46 | 79 | 0.0 | 1.7 | 0.00 | 0.01 | 0.00 | 73 | 1015.7 |
| 20260506002013 | 46 | 78 | 0.0 | 2.6 | 0.00 | 0.01 | 0.00 | 73 | 1015.7 |
| 20260506001513 | 46 | 79 | 0.0 | 2.6 | 0.00 | 0.01 | 0.00 | 73 | 1015.8 |
| 20260506001011 | 46 | 78 | 0.0 | 2.6 | 0.00 | 0.01 | 0.00 | 73 | 1015.7 |
| 20260506000510 | 46 | 78 | 0.0 | 2.6 | 0.00 | 0.01 | 0.00 | 73 | 1015.8 |
| 20260506000016 | 47 | 63 | 0.0 | 1.7 | 0.00 | 0.01 | 0.00 | 73 | 1015.7 |
| 20260505235514 | 47 | 85 | 0.0 | 2.6 | 0.00 | 0.01 | 0.00 | 73 | 1015.7 |
| 20260505235009 | 47 | 82 | 0.0 | 1.7 | 0.00 | 0.01 | 0.00 | 73 | 1015.7 |
| 20260505234514 | 47 | 79 | 0.0 | 1.7 | 0.00 | 0.01 | 0.00 | 73 | 1015.8 |
| 20260505234009 | 47 | 79 | 0.0 | 1.7 | 0.00 | 0.01 | 0.00 | 73 | 1015.8 |
| 20260505233513 | 47 | 79 | 0.0 | 2.6 | 0.00 | 0.01 | 0.00 | 72 | 1015.8 |
| 20260505233007 | 47 | 79 | 0.9 | 3.5 | 0.00 | 0.01 | 0.00 | 72 | 1015.7 |
| 20260505232506 | 47 | 76 | 0.0 | 3.5 | 0.00 | 0.01 | 0.00 | 72 | 1015.7 |
| 20260505232006 | 47 | 78 | 0.0 | 2.6 | 0.00 | 0.01 | 0.00 | 72 | 1015.7 |
| 20260505231505 | 47 | 76 | 0.0 | 2.6 | 0.00 | 0.01 | 0.00 | 72 | 1015.8 |
| 20260505231004 | 47 | 82 | 0.9 | 2.6 | 0.00 | 0.01 | 0.00 | 71 | 1015.8 |
| 20260505230504 | 47 | 71 | 0.0 | 2.6 | 0.00 | 0.01 | 0.00 | 71 | 1015.7 |
| 20260505230003 | 47 | 84 | 0.0 | 3.5 | 0.00 | 0.01 | 0.00 | 71 | 1015.8 |
| 20260505225503 | 47 | 86 | 0.0 | 3.5 | 0.00 | 0.01 | 0.01 | 71 | 1015.8 |
| 20260505225004 | 47 | 76 | 0.0 | 7.0 | 0.00 | 0.01 | 0.01 | 71 | 1015.8 |
| 20260505224502 | 47 | 67 | 0.9 | 7.0 | 0.00 | 0.01 | 0.01 | 71 | 1015.7 |
| 20260505224002 | 48 | 83 | 0.9 | 7.0 | 0.00 | 0.01 | 0.01 | 71 | 1015.7 |
| 20260505223505 | 48 | 77 | 0.9 | 3.5 | 0.00 | 0.01 | 0.01 | 71 | 1015.8 |
| 20260505223004 | 48 | 76 | 0.0 | 2.6 | 0.00 | 0.01 | 0.01 | 71 | 1015.8 |
| 20260505222502 | 48 | 82 | 0.0 | 2.6 | 0.00 | 0.01 | 0.01 | 71 | 1015.7 |
| 20260505222002 | 48 | 79 | 0.9 | 3.5 | 0.00 | 0.01 | 0.01 | 72 | 1015.7 |
| 20260505221502 | 48 | 69 | 0.9 | 3.5 | 0.00 | 0.01 | 0.01 | 72 | 1015.8 |
| 20260505221001 | 48 | 75 | 0.9 | 3.5 | 0.00 | 0.01 | 0.01 | 73 | 1015.8 |
| 20260505220500 | 48 | 121 | 0.0 | 4.3 | 0.00 | 0.01 | 0.01 | 73 | 1015.8 |
| 20260505220003 | 48 | 86 | 0.9 | 4.3 | 0.00 | 0.01 | 0.01 | 73 | 1015.8 |
| 20260505215501 | 48 | 76 | 0.9 | 3.5 | 0.00 | 0.01 | 0.01 | 74 | 1015.7 |
| 20260505215100 | 48 | 75 | 0.0 | 3.5 | 0.00 | 0.01 | 0.01 | 74 | 1015.7 |
| 20260505214609 | 48 | 70 | 0.0 | 5.2 | 0.00 | 0.01 | 0.01 | 74 | 1015.7 |
| 20260505214101 | 48 | 98 | 0.9 | 5.2 | 0.00 | 0.01 | 0.01 | 74 | 1015.6 |
| 20260505213559 | 48 | 88 | 0.0 | 2.6 | 0.00 | 0.01 | 0.01 | 75 | 1015.6 |
| 20260505213102 | 49 | 90 | 0.0 | 5.2 | 0.00 | 0.01 | 0.01 | 74 | 1015.6 |
| 20260505212600 | 49 | 96 | 0.0 | 5.2 | 0.00 | 0.01 | 0.01 | 74 | 1015.5 |
| 20260505212100 | 49 | 74 | 0.0 | 7.0 | 0.00 | 0.01 | 0.01 | 74 | 1015.5 |
| 20260505211619 | 49 | 70 | 1.7 | 5.2 | 0.00 | 0.01 | 0.01 | 74 | 1015.5 |
| 20260505211059 | 49 | 66 | 0.9 | 3.5 | 0.00 | 0.01 | 0.01 | 75 | 1015.5 |
| 20260505210558 | 49 | 70 | 0.9 | 3.5 | 0.00 | 0.01 | 0.01 | 75 | 1015.5 |
| 20260505210108 | 49 | 84 | 0.9 | 5.2 | 0.00 | 0.01 | 0.01 | 75 | 1015.4 |
| 20260505205600 | 49 | 86 | 0.9 | 5.2 | 0.00 | 0.01 | 0.01 | 75 | 1015.4 |
| 20260505205059 | 49 | 81 | 0.0 | 3.5 | 0.00 | 0.01 | 0.01 | 75 | 1015.3 |
| 20260505204559 | 49 | 80 | 0.0 | 3.5 | 0.00 | 0.01 | 0.01 | 75 | 1015.3 |
| 20260505204058 | 49 | 81 | 0.9 | 3.5 | 0.00 | 0.01 | 0.01 | 76 | 1015.3 |
| 20260505203602 | 49 | 75 | 0.9 | 6.1 | 0.00 | 0.01 | 0.01 | 75 | 1015.2 |
| 20260505203058 | 50 | 92 | 1.7 | 7.0 | 0.00 | 0.01 | 0.01 | 75 | 1015.2 |
| 20260505202558 | 50 | 74 | 1.7 | 7.0 | 0.00 | 0.01 | 0.01 | 74 | 1015.2 |
| 20260505202058 | 50 | 101 | 1.7 | 7.0 | 0.00 | 0.01 | 0.01 | 74 | 1015.1 |
| 20260505201606 | 50 | 84 | 1.7 | 5.2 | 0.00 | 0.01 | 0.01 | 75 | 1015.1 |
| 20260505201057 | 51 | 94 | 0.9 | 8.7 | 0.00 | 0.01 | 0.01 | 75 | 1015.0 |
| 20260505200557 | 51 | 91 | 2.6 | 9.6 | 0.00 | 0.01 | 0.01 | 74 | 1015.0 |
| 20260505200057 | 51 | 94 | 2.6 | 9.6 | 0.00 | 0.01 | 0.01 | 74 | 1014.9 |
| 20260505195556 | 51 | 118 | 1.7 | 5.2 | 0.00 | 0.01 | 0.01 | 75 | 1014.8 |
| 20260505195056 | 51 | 84 | 0.0 | 2.6 | 0.00 | 0.01 | 0.01 | 75 | 1014.8 |
| 20260505194558 | 51 | 349 | 0.0 | 0.9 | 0.00 | 0.01 | 0.01 | 75 | 1014.7 |
| 20260505194058 | 51 | 309 | 0.0 | 3.5 | 0.00 | 0.01 | 0.01 | 74 | 1014.6 |
| 20260505193555 | 51 | 309 | 0.9 | 7.0 | 0.00 | 0.01 | 0.01 | 73 | 1014.5 |
| 20260505193056 | 51 | 309 | 2.6 | 7.0 | 0.00 | 0.01 | 0.01 | 73 | 1014.5 |
| 20260505192558 | 51 | 294 | 1.7 | 5.2 | 0.00 | 0.01 | 0.01 | 73 | 1014.4 |
| 20260505192055 | 51 | 310 | 0.9 | 3.5 | 0.00 | 0.01 | 0.01 | 73 | 1014.4 |
| 20260505191602 | 51 | 318 | 0.9 | 3.5 | 0.00 | 0.01 | 0.01 | 72 | 1014.5 |
| 20260505191055 | 51 | 310 | 0.0 | 3.5 | 0.00 | 0.01 | 0.01 | 73 | 1014.5 |
| 20260505190558 | 52 | 317 | 0.9 | 3.5 | 0.00 | 0.01 | 0.01 | 72 | 1014.5 |
| 20260505190112 | 52 | 311 | 0.0 | 4.3 | 0.00 | 0.01 | 0.01 | 72 | 1014.5 |
| 20260505185554 | 52 | 311 | 0.9 | 5.2 | 0.00 | 0.01 | 0.01 | 72 | 1014.6 |
| 20260505185054 | 52 | 315 | 1.7 | 6.1 | 0.00 | 0.01 | 0.01 | 72 | 1014.5 |
| 20260505184606 | 52 | 306 | 1.7 | 6.1 | 0.00 | 0.01 | 0.01 | 71 | 1014.5 |
| 20260505184054 | 52 | 310 | 0.9 | 6.1 | 0.00 | 0.01 | 0.01 | 71 | 1014.5 |
| 20260505183554 | 52 | 288 | 1.7 | 7.0 | 0.00 | 0.01 | 0.01 | 70 | 1014.4 |
| 20260505183055 | 52 | 285 | 1.7 | 6.1 | 0.00 | 0.01 | 0.01 | 70 | 1014.4 |
| 20260505182656 | 53 | 325 | 2.6 | 7.0 | 0.00 | 0.01 | 0.01 | 69 | 1014.4 |
| 20260505182056 | 53 | 304 | 1.7 | 7.0 | 0.00 | 0.01 | 0.01 | 69 | 1014.4 |
| 20260505181553 | 53 | 337 | 2.6 | 7.0 | 0.00 | 0.01 | 0.01 | 68 | 1014.4 |
| 20260505181055 | 53 | 309 | 0.9 | 8.7 | 0.00 | 0.01 | 0.01 | 68 | 1014.4 |
| 20260505180552 | 53 | 290 | 3.5 | 10.4 | 0.00 | 0.01 | 0.01 | 67 | 1014.4 |
| 20260505180054 | 54 | 300 | 3.5 | 10.4 | 0.00 | 0.01 | 0.01 | 66 | 1014.4 |
| 20260505175552 | 54 | 317 | 1.7 | 7.8 | 0.00 | 0.01 | 0.01 | 67 | 1014.4 |
| 20260505175052 | 54 | 298 | 3.5 | 7.8 | 0.00 | 0.01 | 0.01 | 66 | 1014.4 |
| 20260505174553 | 54 | 313 | 0.9 | 4.3 | 0.00 | 0.01 | 0.01 | 68 | 1014.4 |
| 20260505174053 | 54 | 300 | 1.7 | 6.1 | 0.00 | 0.01 | 0.01 | 67 | 1014.4 |
| 20260505173552 | 55 | 324 | 1.7 | 6.1 | 0.00 | 0.01 | 0.01 | 66 | 1014.4 |
| 20260505173054 | 55 | 317 | 0.9 | 5.2 | 0.00 | 0.01 | 0.01 | 67 | 1014.4 |
| 20260505172551 | 55 | 308 | 0.9 | 5.2 | 0.00 | 0.01 | 0.01 | 65 | 1014.4 |
| 20260505172052 | 55 | 310 | 0.9 | 6.1 | 0.00 | 0.01 | 0.01 | 66 | 1014.4 |
| 20260505171550 | 55 | 295 | 1.7 | 6.1 | 0.00 | 0.01 | 0.01 | 65 | 1014.4 |
| 20260505171055 | 55 | 298 | 0.9 | 4.3 | 0.00 | 0.01 | 0.01 | 65 | 1014.5 |
| 20260505170554 | 55 | 301 | 0.9 | 4.3 | 0.00 | 0.01 | 0.01 | 65 | 1014.5 |
| 20260505170057 | 55 | 313 | 1.7 | 6.1 | 0.00 | 0.01 | 0.01 | 64 | 1014.5 |
| 20260505165549 | 55 | 318 | 0.9 | 6.1 | 0.00 | 0.01 | 0.01 | 65 | 1014.5 |
| 20260505165048 | 55 | 311 | 0.9 | 4.3 | 0.00 | 0.01 | 0.01 | 65 | 1014.5 |
| 20260505164548 | 55 | 306 | 1.7 | 4.3 | 0.00 | 0.01 | 0.01 | 64 | 1014.6 |
| 20260505164048 | 55 | 320 | 1.7 | 4.3 | 0.00 | 0.01 | 0.01 | 66 | 1014.6 |
| 20260505163550 | 55 | 314 | 0.9 | 4.3 | 0.00 | 0.01 | 0.01 | 64 | 1014.6 |
| 20260505163050 | 55 | 288 | 0.9 | 3.5 | 0.00 | 0.01 | 0.01 | 66 | 1014.6 |
| 20260505162547 | 54 | 300 | 0.9 | 3.5 | 0.00 | 0.01 | 0.01 | 65 | 1014.6 |
| 20260505162048 | 54 | 300 | 0.9 | 3.5 | 0.00 | 0.01 | 0.01 | 64 | 1014.6 |
| 20260505161547 | 54 | 317 | 0.9 | 3.5 | 0.00 | 0.01 | 0.01 | 66 | 1014.6 |
| 20260505161049 | 54 | 319 | 0.9 | 3.5 | 0.00 | 0.01 | 0.01 | 66 | 1014.7 |
| 20260505160550 | 54 | 342 | 0.0 | 2.6 | 0.00 | 0.01 | 0.01 | 67 | 1014.7 |
| 20260505153053 | 53 | 342 | 0.9 | 3.5 | 0.00 | 0.01 | 0.01 | 68 | 1014.6 |
| 20260505152544 | 53 | 315 | 0.9 | 3.5 | 0.00 | 0.01 | 0.01 | 68 | 1014.7 |
| 20260505152048 | 53 | 314 | 0.9 | 3.5 | 0.00 | 0.01 | 0.01 | 69 | 1014.7 |
| 20260505151544 | 53 | 313 | 0.9 | 4.3 | 0.00 | 0.01 | 0.01 | 68 | 1014.7 |
| 20260505151044 | 53 | 294 | 0.9 | 4.3 | 0.00 | 0.01 | 0.01 | 69 | 1014.7 |
| 20260505150546 | 53 | 285 | 0.0 | 2.6 | 0.00 | 0.01 | 0.01 | 69 | 1014.7 |
| 20260505140542 | 55 | 302 | 3.5 | 7.0 | 0.00 | 0.01 | 0.01 | 66 | 1014.8 |
| 20260505125039 | 54 | 306 | 4.3 | 9.6 | 0.00 | 0.01 | 0.01 | 63 | 1014.8 |
| 20260505124539 | 55 | 309 | 3.5 | 8.7 | 0.00 | 0.01 | 0.01 | 64 | 1014.8 |
| 20260505124039 | 55 | 287 | 4.3 | 9.6 | 0.00 | 0.01 | 0.01 | 64 | 1014.8 |
| 20260505123538 | 55 | 279 | 3.5 | 7.8 | 0.00 | 0.01 | 0.01 | 65 | 1014.8 |
| 20260505123103 | 55 | 302 | 3.5 | 7.8 | 0.00 | 0.01 | 0.01 | 64 | 1014.7 |
| 20260505122538 | 56 | 291 | 2.6 | 7.8 | 0.00 | 0.01 | 0.01 | 64 | 1014.8 |
| 20260505122037 | 55 | 284 | 2.6 | 7.8 | 0.00 | 0.01 | 0.01 | 62 | 1014.7 |
| 20260505121539 | 55 | 290 | 2.6 | 8.7 | 0.00 | 0.01 | 0.01 | 64 | 1014.8 |
| 20260505121038 | 55 | 321 | 3.5 | 8.7 | 0.00 | 0.01 | 0.01 | 64 | 1014.8 |
| 20260505120536 | 54 | 292 | 3.5 | 7.8 | 0.00 | 0.01 | 0.01 | 66 | 1014.9 |
| 20260505120046 | 54 | 310 | 1.7 | 7.8 | 0.00 | 0.01 | 0.01 | 66 | 1014.9 |
| 20260505115535 | 54 | 309 | 3.5 | 7.8 | 0.00 | 0.01 | 0.01 | 66 | 1014.9 |
| 20260505115034 | 54 | 306 | 2.6 | 7.0 | 0.00 | 0.01 | 0.01 | 67 | 1014.8 |
| 20260505114546 | 54 | 304 | 1.7 | 9.6 | 0.00 | 0.01 | 0.01 | 67 | 1014.9 |
| 20260505114034 | 53 | 306 | 3.5 | 10.4 | 0.00 | 0.01 | 0.01 | 66 | 1014.9 |
| 20260505113534 | 54 | 281 | 3.5 | 8.7 | 0.00 | 0.01 | 0.01 | 67 | 1014.9 |
| 20260505113034 | 54 | 292 | 3.5 | 8.7 | 0.00 | 0.01 | 0.01 | 66 | 1015.0 |
| 20260505112535 | 54 | 300 | 3.5 | 7.8 | 0.00 | 0.01 | 0.01 | 64 | 1015.0 |
| 20260505112035 | 54 | 293 | 2.6 | 7.8 | 0.00 | 0.01 | 0.01 | 63 | 1015.0 |
| 20260505111533 | 55 | 280 | 2.6 | 9.6 | 0.00 | 0.01 | 0.01 | 63 | 1014.9 |
| 20260505111033 | 55 | 292 | 0.9 | 9.6 | 0.00 | 0.01 | 0.01 | 62 | 1014.9 |
| 20260505110532 | 55 | 309 | 2.6 | 7.8 | 0.00 | 0.01 | 0.01 | 62 | 1014.9 |
| 20260505102025 | 53 | 291 | 2.6 | 7.0 | 0.00 | 0.01 | 0.01 | 68 | 1015.3 |
| 20260505101525 | 53 | 306 | 0.9 | 4.3 | 0.00 | 0.01 | 0.01 | 70 | 1015.3 |
| 20260505101025 | 53 | 285 | 0.9 | 5.2 | 0.00 | 0.01 | 0.01 | 68 | 1015.3 |
| 20260505100527 | 53 | 315 | 2.6 | 7.8 | 0.00 | 0.01 | 0.01 | 67 | 1015.3 |
| 20260505100031 | 53 | 296 | 1.7 | 7.8 | 0.00 | 0.01 | 0.01 | 67 | 1015.3 |
| 20260505095523 | 54 | 292 | 0.9 | 5.2 | 0.00 | 0.01 | 0.01 | 66 | 1015.3 |
| 20260505095022 | 54 | 240 | 1.7 | 4.3 | 0.00 | 0.01 | 0.01 | 66 | 1015.2 |
| 20260505094521 | 53 | 49 | 0.9 | 6.1 | 0.00 | 0.01 | 0.01 | 65 | 1015.3 |
| 20260505094021 | 53 | 253 | 1.7 | 6.1 | 0.00 | 0.01 | 0.01 | 65 | 1015.3 |
| 20260505093520 | 53 | 292 | 0.9 | 7.0 | 0.00 | 0.01 | 0.01 | 66 | 1015.3 |
| 20260505093019 | 53 | 288 | 0.9 | 7.0 | 0.00 | 0.01 | 0.01 | 66 | 1015.3 |
| 20260505092519 | 53 | 292 | 0.9 | 7.0 | 0.00 | 0.01 | 0.01 | 68 | 1015.4 |
| 20260505092019 | 53 | 290 | 1.7 | 7.8 | 0.00 | 0.01 | 0.01 | 68 | 1015.3 |
| 20260505091527 | 53 | 300 | 0.0 | 7.8 | 0.00 | 0.01 | 0.01 | 71 | 1015.3 |
| 20260505091017 | 53 | 355 | 2.6 | 7.0 | 0.00 | 0.01 | 0.01 | 72 | 1015.3 |
| 20260505090518 | 53 | 313 | 2.6 | 7.0 | 0.00 | 0.01 | 0.01 | 70 | 1015.4 |
| 20260505090116 | 53 | 291 | 3.5 | 6.1 | 0.00 | 0.01 | 0.01 | 70 | 1015.3 |
| 20260505085516 | 53 | 290 | 0.0 | 5.2 | 0.00 | 0.01 | 0.01 | 71 | 1015.3 |
| 20260505085016 | 52 | 302 | 1.7 | 5.2 | 0.00 | 0.01 | 0.01 | 71 | 1015.3 |
| 20260505084519 | 52 | 305 | 1.7 | 7.8 | 0.00 | 0.01 | 0.01 | 74 | 1015.3 |
| 20260505084015 | 52 | 297 | 1.7 | 7.8 | 0.00 | 0.01 | 0.01 | 72 | 1015.4 |
| 20260505083517 | 52 | 286 | 2.6 | 8.7 | 0.00 | 0.01 | 0.01 | 72 | 1015.4 |
| 20260505083015 | 52 | 333 | 2.6 | 8.7 | 0.00 | 0.01 | 0.01 | 72 | 1015.4 |
| 20260505082517 | 53 | 288 | 2.6 | 7.8 | 0.00 | 0.01 | 0.01 | 72 | 1015.4 |
| 20260505082015 | 53 | 328 | 2.6 | 7.8 | 0.00 | 0.01 | 0.01 | 72 | 1015.4 |
| 20260505081514 | 53 | 273 | 0.9 | 6.1 | 0.00 | 0.01 | 0.01 | 69 | 1015.3 |
| 20260505081011 | 53 | 259 | 1.7 | 7.0 | 0.00 | 0.01 | 0.01 | 69 | 1015.3 |
| 20260505080511 | 53 | 300 | 1.7 | 7.0 | 0.00 | 0.01 | 0.01 | 70 | 1015.3 |
| 20260505080010 | 52 | 289 | 0.0 | 6.1 | 0.00 | 0.01 | 0.01 | 73 | 1015.3 |
| 20260505075509 | 52 | 171 | 0.9 | 6.1 | 0.00 | 0.01 | 0.01 | 76 | 1015.3 |
| 20260505075007 | 51 | 292 | 1.7 | 6.1 | 0.00 | 0.01 | 0.01 | 76 | 1015.3 |
| 20260505074506 | 50 | 274 | 0.0 | 3.5 | 0.00 | 0.01 | 0.01 | 79 | 1015.3 |
| 20260505074005 | 50 | 279 | 0.0 | 3.5 | 0.00 | 0.01 | 0.01 | 81 | 1015.4 |
| 20260505073504 | 49 | 246 | 0.0 | 4.3 | 0.00 | 0.01 | 0.01 | 82 | 1015.4 |
| 20260505073002 | 49 | 299 | 0.9 | 3.5 | 0.00 | 0.01 | 0.01 | 84 | 1015.3 |
| 20260505072501 | 48 | 311 | 0.0 | 3.5 | 0.00 | 0.01 | 0.01 | 86 | 1015.3 |
| 20260505072059 | 48 | 289 | 0.9 | 3.5 | 0.00 | 0.01 | 0.01 | 86 | 1015.3 |
| 20260505071559 | 47 | 42 | 0.0 | 3.5 | 0.00 | 0.01 | 0.01 | 88 | 1015.4 |
| 20260505071057 | 47 | 322 | 0.0 | 2.6 | 0.00 | 0.01 | 0.01 | 90 | 1015.4 |
| 20260505070556 | 46 | 322 | 0.0 | 2.6 | 0.00 | 0.01 | 0.01 | 90 | 1015.4 |
| 20260505070057 | 46 | 322 | 0.0 | 2.6 | 0.00 | 0.01 | 0.01 | 90 | 1015.5 |
| 20260505065555 | 46 | 326 | 0.0 | 2.6 | 0.00 | 0.01 | 0.01 | 91 | 1015.4 |
| 20260505065054 | 45 | 327 | 0.0 | 3.5 | 0.00 | 0.01 | 0.01 | 92 | 1015.5 |
| 20260505064555 | 45 | 61 | 0.0 | 3.5 | 0.00 | 0.01 | 0.01 | 93 | 1015.5 |
| 20260505064054 | 45 | 316 | 0.0 | 1.7 | 0.00 | 0.01 | 0.01 | 94 | 1015.6 |
| 20260505063554 | 45 | 316 | 0.0 | 2.6 | 0.00 | 0.01 | 0.01 | 94 | 1015.6 |
| 20260505063059 | 44 | 316 | 0.0 | 2.6 | 0.00 | 0.01 | 0.01 | 94 | 1015.6 |
| 20260505062553 | 44 | 316 | 0.0 | 0.0 | 0.01 | 0.01 | 0.01 | 95 | 1015.6 |
| 20260505062052 | 44 | 316 | 0.0 | 0.0 | 0.01 | 0.01 | 0.01 | 95 | 1015.7 |
| 20260505061555 | 44 | 316 | 0.0 | 0.0 | 0.01 | 0.01 | 0.01 | 95 | 1015.6 |
| 20260505061051 | 43 | 316 | 0.0 | 0.0 | 0.01 | 0.01 | 0.01 | 95 | 1015.7 |
| 20260505060550 | 43 | 316 | 0.0 | 0.0 | 0.01 | 0.01 | 0.01 | 95 | 1015.7 |
| 20260505060050 | 42 | 316 | 0.0 | 0.0 | 0.01 | 0.01 | 0.01 | 95 | 1015.7 |
| 20260505055548 | 41 | 316 | 0.0 | 0.0 | 0.01 | 0.01 | 0.01 | 95 | 1015.7 |
| 20260505055050 | 41 | 316 | 0.0 | 0.0 | 0.01 | 0.01 | 0.01 | 95 | 1015.7 |
| 20260505054546 | 40 | 316 | 0.0 | 0.0 | 0.01 | 0.01 | 0.01 | 94 | 1015.6 |
| 20260505054045 | 40 | 316 | 0.0 | 0.0 | 0.01 | 0.01 | 0.01 | 94 | 1015.6 |
| 20260505053548 | 40 | 316 | 0.0 | 0.0 | 0.01 | 0.01 | 0.01 | 94 | 1015.7 |
| 20260505053045 | 40 | 316 | 0.0 | 0.0 | 0.01 | 0.01 | 0.01 | 94 | 1015.6 |
| 20260505052543 | 40 | 316 | 0.0 | 0.0 | 0.00 | 0.00 | 0.00 | 94 | 1015.6 |
| 20260505052045 | 40 | 316 | 0.0 | 0.0 | 0.00 | 0.00 | 0.00 | 94 | 1015.6 |
| 20260505051542 | 40 | 316 | 0.0 | 0.0 | 0.00 | 0.00 | 0.00 | 94 | 1015.5 |
| 20260505051042 | 39 | 316 | 0.0 | 0.0 | 0.00 | 0.00 | 0.00 | 94 | 1015.5 |
| 20260505050541 | 39 | 316 | 0.0 | 0.0 | 0.00 | 0.00 | 0.00 | 93 | 1015.5 |
| 20260505050118 | 39 | 316 | 0.0 | 0.0 | 0.00 | 0.00 | 0.00 | 93 | 1015.5 |
| 20260505041549 | 40 | 316 | 0.0 | 0.0 | 0.00 | 0.00 | 0.00 | 92 | 1015.4 |
| 20260505041036 | 40 | 316 | 0.0 | 0.0 | 0.00 | 0.00 | 0.00 | 93 | 1015.3 |
| 20260505040539 | 40 | 316 | 0.0 | 0.0 | 0.00 | 0.00 | 0.00 | 93 | 1015.3 |
| 20260505040046 | 40 | 316 | 0.0 | 0.0 | 0.00 | 0.00 | 0.00 | 92 | 1015.2 |
| 20260505035535 | 40 | 316 | 0.0 | 0.0 | 0.00 | 0.00 | 0.00 | 93 | 1015.2 |
| 20260505035034 | 40 | 316 | 0.0 | 0.0 | 0.00 | 0.00 | 0.00 | 92 | 1015.2 |
| 20260505034534 | 40 | 316 | 0.0 | 0.0 | 0.00 | 0.00 | 0.00 | 92 | 1015.2 |
| 20260505034034 | 40 | 316 | 0.0 | 0.0 | 0.00 | 0.00 | 0.00 | 92 | 1015.2 |
| 20260505033536 | 40 | 316 | 0.0 | 0.0 | 0.00 | 0.00 | 0.00 | 92 | 1015.2 |
| 20260505033036 | 40 | 316 | 0.0 | 0.0 | 0.00 | 0.00 | 0.00 | 92 | 1015.2 |
| 20260505032535 | 40 | 316 | 0.0 | 0.0 | 0.00 | 0.00 | 0.00 | 92 | 1015.2 |
| 20260505032034 | 40 | 316 | 0.0 | 0.0 | 0.00 | 0.00 | 0.00 | 92 | 1015.2 |